Home > Weather > Adak > Past weeks

Flag for U.S.A. Weather for the Past 2 Weeks in Adak, Alaska, U.S.A.

Now
25 °F

Overcast.


Feels Like: 17 °F
Forecast: 28 / 33 °F
Wind: 7 mph from Southwest

Location: Adak

Current Time: Feb 7, 2016 at 3:33:20 AM

Latest Report: Feb 7, 2016 at 2:56 AM


Visibility: 10 mi

Pressure: 29.73 "Hg

Humidity: 63%

Dew point: 14 °F

Location of AdakLocation

Historic Weather in Adak — Graph

°F

Adak Temperature Yesterday

Maximum temperature yesterday: 34 °F (at 1:16 PM)
Minimum temperature yesterday: 28 °F (at 10:56 AM)
Average temperature yesterday: 31 °F

High & Low Weather Summary for the Past Weeks

 TemperatureHumidityPressure
High37 °F (Jan 23, 2:16 AM)81% (Jan 23, 7:36 AM)29.75 "Hg (Jan 23, 7:36 AM)
Low9 °F (Feb 2, 7:36 AM)43% (Feb 6, 7:56 PM)28.56 "Hg (Jan 30, 9:16 AM)
Average30 °F65%29.12 "Hg
* Reported Jan 23 2:16 AM — Feb 7 2:36 AM, Adak, Weather by CustomWeather, © 2016

Note: Actual official high and low records may vary slightly from our data, if they occured in-between our weather recording intervals... More about our weather records

Advertising

Adak Weather History for the Previous 24 Hours

 ConditionsComfort  
Time TempWeatherWind HumidityBarometerVisibility
2:36 AM
Sun, Feb 7
28 °FOvercast.5 mph59%29.73 "Hg10 mi
2:16 AM30 °FOvercast.9 mph55%29.74 "Hg10 mi
1:56 AM25 °FOvercast.8 mph59%29.74 "Hg10 mi
1:36 AM27 °FOvercast.No wind69%29.74 "Hg10 mi
1:16 AM30 °FPartly cloudy.6 mph59%29.75 "Hg10 mi
12:56 AM28 °FMostly cloudy.5 mph64%29.75 "Hg10 mi
12:36 AM30 °FMostly cloudy.14 mph55%29.75 "Hg6 mi
12:16 AM28 °FMostly cloudy.7 mph59%29.75 "Hg10 mi
11:56 PM
Sat, Feb 6
28 °FMostly cloudy.8 mph64%29.75 "Hg10 mi
11:36 PM30 °FMostly cloudy.10 mph64%29.75 "Hg10 mi
11:16 PM30 °FOvercast.13 mph59%29.75 "Hg10 mi
10:56 PM30 °FOvercast.14 mph59%29.74 "Hg10 mi
10:36 PM30 °FOvercast.12 mph47%29.74 "Hg10 mi
10:16 PM30 °FPassing clouds.15 mph47%29.73 "Hg10 mi
9:56 PM30 °FPassing clouds.13 mph51%29.73 "Hg10 mi
9:36 PM30 °FOvercast.13 mph51%29.72 "Hg10 mi
9:16 PM30 °FOvercast.13 mph55%29.71 "Hg10 mi
8:56 PM30 °FOvercast.15 mph47%29.71 "Hg10 mi
8:36 PM30 °FPassing clouds.12 mph43%29.71 "Hg10 mi
8:16 PM30 °FPassing clouds.14 mph43%29.71 "Hg10 mi
7:56 PM30 °FPassing clouds.16 mph43%29.70 "Hg10 mi
7:36 PM28 °FPassing clouds.20 mph51%29.70 "Hg10 mi
7:16 PM30 °FPassing clouds.17 mph47%29.70 "Hg10 mi
6:56 PM30 °FPassing clouds.21 mph47%29.69 "Hg10 mi
6:36 PM30 °FPassing clouds.20 mph51%29.69 "Hg10 mi
6:16 PM30 °FPassing clouds.25 mph55%29.68 "Hg9 mi
5:36 PM30 °FPartly sunny.20 mph55%29.67 "Hg10 mi
5:16 PM30 °FPartly sunny.24 mph59%29.67 "Hg6 mi
4:56 PM30 °FBroken clouds.18 mph64%29.66 "Hg4 mi
4:36 PM30 °FMostly cloudy.36 mph64%29.65 "Hg2 mi
4:16 PM32 °FMore clouds than sun.18 mph55%29.64 "Hg10 mi
3:36 PM32 °FMore clouds than sun.25 mph55%29.63 "Hg5 mi
3:16 PM34 °FMore clouds than sun.24 mph51%29.62 "Hg9 mi
2:56 PM32 °FBroken clouds.22 mph55%29.61 "Hg10 mi
2:36 PM32 °FOvercast.23 mph55%29.61 "Hg9 mi
2:16 PM34 °FMostly cloudy.20 mph56%29.60 "Hg10 mi
1:56 PM32 °FMostly cloudy.21 mph60%29.60 "Hg8 mi
1:36 PM32 °FBroken clouds.14 mph60%29.59 "Hg7 mi
1:16 PM34 °FCloudy.13 mph56%29.59 "Hg9 mi
12:56 PM32 °FMore clouds than sun.23 mph55%29.58 "Hg10 mi
12:36 PM32 °FBroken clouds.20 mph55%29.58 "Hg8 mi
12:16 PM30 °FMostly cloudy.16 mph64%29.59 "Hg1 mi
11:56 AM30 °FCloudy.7 mph69%29.58 "Hg5 mi
10:56 AM28 °FCloudy.6 mph74%29.56 "Hg1 mi
10:36 AM30 °FMostly cloudy.10 mph64%29.55 "Hg2 mi
10:16 AM30 °FMore clouds than sun.No wind69%29.55 "Hg1 mi
9:56 AM30 °FMostly cloudy.10 mph64%29.55 "Hg2 mi
9:36 AM30 °FMostly cloudy.20 mph69%29.53 "Hg1 mi
9:16 AM30 °FCloudy.9 mph64%29.53 "Hg9 mi
8:56 AM30 °FMostly cloudy.20 mph59%29.52 "Hg10 mi
8:36 AM30 °FMostly cloudy.9 mph69%29.52 "Hg1 mi
8:16 AM30 °FOvercast.15 mph64%29.51 "Hg9 mi
7:56 AM30 °FOvercast.16 mph64%29.51 "Hg3 mi
7:36 AM30 °FMostly cloudy.13 mph64%29.50 "Hg7 mi
7:16 AM32 °FMostly cloudy.12 mph51%29.50 "Hg10 mi
6:56 AM32 °FMostly cloudy.13 mph51%29.49 "Hg10 mi
6:36 AM32 °FMostly cloudy.21 mph51%29.48 "Hg10 mi
6:16 AM32 °FMostly cloudy.18 mph51%29.48 "Hg10 mi
5:56 AM30 °FPartly cloudy.12 mph59%29.48 "Hg5 mi
5:36 AM32 °FMostly cloudy.17 mph51%29.47 "Hg10 mi
5:16 AM32 °FOvercast.15 mph47%29.47 "Hg10 mi
4:56 AM32 °FMostly cloudy.20 mph44%29.46 "Hg10 mi
4:36 AM32 °FOvercast.20 mph44%29.46 "Hg10 mi
4:16 AM32 °FMostly cloudy.14 mph47%29.46 "Hg10 mi
3:56 AM30 °FPartly cloudy.15 mph51%29.45 "Hg10 mi
3:36 AM30 °FPartly cloudy.14 mph55%29.44 "Hg10 mi
3:16 AM30 °FPartly cloudy.12 mph47%29.44 "Hg10 mi
Weather by CustomWeather, © 2016

See weather overviewHow to use our weather pages